GW0309 Weather Reports


Display with metric or nautical units.
time (UTC)temp
F
wind
direction
speed
MPH
gust
MPH
rain 1hr
in
rain 24hr
in
rain mn
in
humidity
%
barometer
mb
20260831115410 0 186 1.0 2.0 0.00 0.00 0.00 1064.7
20260831114909 0 159 1.0 2.0 0.00 0.00 0.00 1064.4
20260831114408 0 155 1.0 2.0 0.00 0.00 0.00 1064.3
20260831113905 0 149 0.0 1.0 0.00 0.00 0.00 1064.3
20260831113404 0 137 1.0 3.0 0.00 0.00 0.00 1064.2
20260831112859 0 168 1.0 2.0 0.00 0.00 0.00 1064.2
20260831112354 0 149 0.0 2.0 0.00 0.00 0.00 1064.2
20260831111849 0 179 1.0 3.0 0.00 0.00 0.00 1064.2
20260831111345 0 170 1.0 3.0 0.00 0.00 0.00 1064.2
20260831110841 0 172 2.0 3.0 0.00 0.00 0.00 1064.2
20260831110340 0 153 3.0 3.0 0.00 0.00 0.00 1064.3
20260831105839 0 177 2.0 3.0 0.00 0.00 0.00 1064.2
20260831105335 0 176 3.0 3.0 0.00 0.00 0.00 1064.0
20260831104830 0 145 2.0 2.0 0.00 0.00 0.00 1064.1
20260831104327 0 169 1.0 2.0 0.00 0.00 0.00 1064.1
20260831103826 0 162 1.0 3.0 0.00 0.00 0.00 1064.1
20260831103322 0 162 1.0 1.0 0.00 0.00 0.00 1064.0
20260831102817 0 164 1.0 5.0 0.00 0.00 0.00 1064.1
20260831102312 0 175 2.0 5.0 0.00 0.00 0.00 1064.1
20260831101808 0 181 4.0 6.0 0.00 0.00 0.00 1064.1
20260831101303 0 176 4.0 5.0 0.00 0.00 0.00 1064.1
20260831100758 0 164 2.0 6.0 0.00 0.00 0.00 1064.2
20260831100254 0 165 3.0 3.0 0.00 0.00 0.00 1064.2
20260831095754 0 170 3.0 3.0 0.00 0.00 0.00 1063.9
20260831095249 0 170 2.0 3.0 0.00 0.00 0.00 1063.9
20260831094748 0 143 1.0 5.0 0.00 0.00 0.00 1064.0
20260831094244 0 189 4.0 7.0 0.00 0.00 0.00 1064.2
20260831093740 0 155 2.0 6.0 0.00 0.00 0.00 1064.0
20260831093235 0 158 3.0 5.0 0.00 0.00 0.00 1064.0
20260831092732 0 166 2.0 3.0 0.00 0.00 0.00 1064.2
20260831092227 0 163 2.0 3.0 0.00 0.00 0.00 1063.9
20260831091726 0 173 1.0 2.0 0.00 0.00 0.00 1063.9
20260831091222 0 160 1.0 3.0 0.00 0.00 0.00 1064.1
20260831090717 0 166 3.0 6.0 0.00 0.00 0.00 1063.9
20260831090214 0 174 2.0 5.0 0.00 0.00 0.00 1064.1
20260831085709 0 192 3.0 5.0 0.00 0.00 0.00 1064.1
20260831085204 0 152 3.0 5.0 0.00 0.00 0.00 1064.0
20260831084659 0 157 1.0 5.0 0.00 0.00 0.00 1064.0
20260831084155 0 172 2.0 6.0 0.00 0.00 0.00 1064.0
20260831083651 0 181 3.0 5.0 0.00 0.00 0.00 1063.9
20260831083146 0 148 3.0 3.0 0.00 0.00 0.00 1063.9
20260831082644 0 156 2.0 3.0 0.00 0.00 0.00 1064.1
20260831082140 0 164 1.0 3.0 0.00 0.00 0.00 1063.8
20260831081636 0 190 3.0 7.0 0.00 0.00 0.00 1063.7
20260831081131 0 130 2.0 5.0 0.00 0.00 0.00 1063.8
20260831080627 0 184 4.0 6.0 0.00 0.00 0.00 1063.6
20260831080121 0 184 4.0 5.0 0.00 0.00 0.00 1063.6
20260831075617 0 167 2.0 6.0 0.00 0.00 0.00 1063.8
20260831075113 0 181 3.0 6.0 0.00 0.00 0.00 1063.5
20260831074612 0 196 3.0 8.0 0.00 0.00 0.00 1063.6
20260831074107 0 156 5.0 6.0 0.00 0.00 0.00 1063.6
20260831073602 0 165 4.0 7.0 0.00 0.00 0.00 1063.5
20260831073101 0 155 4.0 7.0 0.00 0.00 0.00 1063.8
20260831072556 0 189 3.0 5.0 0.00 0.00 0.00 1063.7
20260831072054 0 196 3.0 5.0 0.00 0.00 0.00 1063.7
20260831071551 0 171 5.0 8.0 0.00 0.00 0.00 1063.6
20260831071047 0 172 5.0 7.0 0.00 0.00 0.00 1063.9
20260831070546 0 193 4.0 10.0 0.00 0.00 0.00 1063.6
20260831070041 0 189 5.0 9.0 0.00 0.00 0.00 1063.7
20260831065538 0 196 5.0 7.0 0.00 0.00 0.00 1063.8
20260831065033 0 161 5.0 7.0 0.00 0.00 0.00 1063.8
20260831064528 0 175 3.0 6.0 0.00 0.00 0.00 1064.0
20260831064024 0 147 4.0 8.0 0.00 0.00 0.00 1063.9
20260831063519 0 128 6.0 7.0 0.00 0.00 0.00 1064.2
20260831063014 0 178 3.0 7.0 0.00 0.00 0.00 1064.0
20260831062509 0 165 3.0 6.0 0.00 0.00 0.00 1063.9
20260831062008 0 179 4.0 5.0 0.00 0.00 0.00 1063.9
20260831061506 0 196 4.0 6.0 0.00 0.00 0.00 1064.0
20260831061003 0 181 4.0 5.0 0.00 0.00 0.00 1063.9
20260831060502 0 181 4.0 9.0 0.00 0.00 0.00 1063.9
20260831055956 0 169 4.0 9.0 0.00 0.00 0.00 1063.8
20260831055451 0 136 4.0 8.0 0.00 0.00 0.00 1064.1
20260831054942 0 182 6.0 9.0 0.00 0.00 0.00 1063.8
20260831054441 0 175 3.0 5.0 0.00 0.00 0.00 1064.1
20260831053935 0 179 4.0 7.0 0.00 0.00 0.00 1063.9
20260831053433 0 187 3.0 7.0 0.00 0.00 0.00 1064.1
20260831052928 0 188 4.0 7.0 0.00 0.00 0.00 1064.2
20260831052427 0 184 4.0 7.0 0.00 0.00 0.00 1064.0
20260831051926 0 152 5.0 6.0 0.00 0.00 0.00 1064.0
20260831051424 0 151 4.0 8.0 0.00 0.00 0.00 1063.9
20260831050919 0 163 3.0 5.0 0.00 0.00 0.00 1063.9
20260831050419 0 180 7.0 9.0 0.00 0.00 0.00 1063.9
20260831045918 0 181 3.0 7.0 0.00 0.00 0.00 1063.8
20260831045417 0 180 3.0 7.0 0.00 0.00 0.00 1063.9
20260831044912 0 184 3.0 6.0 0.00 0.00 0.00 1063.8
20260831044408 0 170 5.0 9.0 0.00 0.00 0.00 1063.6
20260831043904 0 161 2.0 6.0 0.00 0.00 0.00 1063.3
20260831043403 0 176 4.0 8.0 0.00 0.00 0.00 1063.4
20260831042859 0 179 5.0 8.0 0.00 0.00 0.00 1063.3
20260831042357 0 169 3.0 9.0 0.00 0.00 0.00 1063.4
20260831041853 0 127 5.0 9.0 0.00 0.00 0.00 1063.1
20260831041352 0 182 1.0 6.0 0.00 0.00 0.00 1063.5
20260831040847 0 177 3.0 9.0 0.00 0.00 0.00 1063.3
20260831040342 0 154 3.0 10.0 0.00 0.00 0.00 1063.3
20260831035840 0 179 3.0 5.0 0.00 0.00 0.00 1063.0
20260831035339 0 165 2.0 3.0 0.00 0.00 0.00 1063.4
20260831034833 0 190 2.0 5.0 0.00 0.00 0.00 1063.4
20260831034329 0 169 2.0 6.0 0.00 0.00 0.00 1063.3
20260831033824 0 173 1.0 5.0 0.00 0.00 0.00 1063.1
20260831033319 0 162 4.0 8.0 0.00 0.00 0.00 1063.1
20260831032814 0 186 3.0 6.0 0.00 0.00 0.00 1063.3
20260831032309 0 172 4.0 7.0 0.00 0.00 0.00 1062.9
20260831031804 0 157 5.0 7.0 0.00 0.00 0.00 1063.0
20260831031303 0 182 4.0 11.0 0.00 0.00 0.00 1063.0
20260831030759 0 181 2.0 3.0 0.00 0.00 0.00 1063.1
20260831030256 0 175 3.0 10.0 0.00 0.00 0.00 1063.1
20260831025756 0 195 6.0 9.0 0.00 0.00 0.00 1063.1
20260831025250 0 175 3.0 6.0 0.00 0.00 0.00 1063.3
20260831024746 0 183 2.0 6.0 0.00 0.00 0.00 1063.1
20260831024244 0 165 3.0 5.0 0.00 0.00 0.00 1063.1
20260831023743 0 185 4.0 7.0 0.00 0.00 0.00 1063.0
20260831023237 0 154 5.0 8.0 0.00 0.00 0.00 1063.1
20260831022732 0 167 3.0 7.0 0.00 0.00 0.00 1063.3
20260831022232 0 172 5.0 7.0 0.00 0.00 0.00 1062.9
20260831021727 0 153 3.0 6.0 0.00 0.00 0.00 1063.0
20260831021226 0 177 4.0 5.0 0.00 0.00 0.00 1062.9
20260831020723 0 130 3.0 5.0 0.00 0.00 0.00 1062.6
20260831020222 0 171 4.0 6.0 0.00 0.00 0.00 1062.8
20260831015718 0 167 3.0 5.0 0.00 0.00 0.00 1062.8
20260831015213 0 160 3.0 5.0 0.00 0.00 0.00 1062.8
20260831014708 0 177 3.0 5.0 0.00 0.00 0.00 1062.7
20260831014203 0 151 3.0 5.0 0.00 0.00 0.00 1062.7
20260831013659 0 148 1.0 5.0 0.00 0.00 0.00 1062.5
20260831013158 0 174 2.0 5.0 0.00 0.00 0.00 1062.4
20260831012653 0 172 3.0 7.0 0.00 0.00 0.00 1062.4
20260831012149 0 177 3.0 3.0 0.00 0.00 0.00 1062.4
20260831011648 0 150 3.0 7.0 0.00 0.00 0.00 1062.1
20260831011144 0 156 1.0 3.0 0.00 0.00 0.00 1062.0
20260831010639 0 165 3.0 3.0 0.00 0.00 0.00 1062.1
20260831010135 0 175 2.0 3.0 0.00 0.00 0.00 1062.2
20260831005634 0 164 3.0 5.0 0.00 0.00 0.00 1062.1
20260831005130 0 158 2.0 2.0 0.00 0.00 0.00 1062.0
20260831004625 0 151 2.0 2.0 0.00 0.00 0.00 1062.0
20260831004115 0 174 2.0 3.0 0.00 0.00 0.00 1062.1
20260831003611 0 159 2.0 5.0 0.00 0.00 0.00 1062.2
20260831003107 0 168 2.0 2.0 0.00 0.00 0.00 1062.2
20260831002605 0 148 3.0 5.0 0.00 0.00 0.00 1062.4
20260831002101 0 178 3.0 6.0 0.00 0.00 0.00 1062.3
20260831001556 0 176 1.0 6.0 0.00 0.00 0.00 1062.2
20260831001052 0 156 2.0 2.0 0.00 0.00 0.00 1062.2
20260831000549 0 173 3.0 6.0 0.00 0.00 0.00 1062.2
20260831000048 0 161 3.0 5.0 0.00 0.00 0.00 1062.4
20260830235547 0 159 2.0 3.0 0.00 0.00 0.00 1062.3
20260830235042 0 181 3.0 7.0 0.00 0.00 0.00 1062.3
20260830234537 0 183 5.0 6.0 0.00 0.00 0.00 1062.4
20260830234032 0 121 1.0 3.0 0.00 0.00 0.00 1062.4
20260830233527 0 140 1.0 2.0 0.00 0.00 0.00 1062.5
20260830233024 0 142 1.0 2.0 0.00 0.00 0.00 1062.4
20260830232519 0 165 1.0 2.0 0.00 0.00 0.00 1062.5
20260830232015 0 160 1.0 3.0 0.00 0.00 0.00 1062.6
20260830231511 0 130 2.0 3.0 0.00 0.00 0.00 1062.5
20260830231010 0 151 2.0 2.0 0.00 0.00 0.00 1062.6
20260830230506 0 184 2.0 3.0 0.00 0.00 0.00 1062.4
20260830230005 0 246 3.0 3.0 0.00 0.00 0.00 1062.4
20260830225501 0 205 2.0 2.0 0.00 0.00 0.00 1062.4
20260830225000 0 181 2.0 3.0 0.00 0.00 0.00 1062.7
20260830224458 0 175 4.0 5.0 0.00 0.00 0.00 1062.6
20260830223955 0 152 1.0 3.0 0.00 0.00 0.00 1062.2
20260830223452 0 186 1.0 7.0 0.00 0.00 0.00 1062.3
20260830222951 0 164 4.0 7.0 0.00 0.00 0.00 1062.3
20260830222446 0 197 3.0 7.0 0.00 0.00 0.00 1062.5
20260830221942 0 195 4.0 9.0 0.00 0.00 0.00 1062.5
20260830221438 0 118 4.0 7.0 0.00 0.00 0.00 1062.2
20260830220933 0 148 4.0 9.0 0.00 0.00 0.00 1062.4
20260830220428 0 174 2.0 6.0 0.00 0.00 0.00 1062.2
20260830215925 0 170 3.0 7.0 0.00 0.00 0.00 1062.6
20260830215420 0 188 4.0 6.0 0.00 0.00 0.00 1062.5
20260830214914 0 157 1.0 6.0 0.00 0.00 0.00 1062.6
20260830214405 0 186 3.0 5.0 0.00 0.00 0.00 1062.5
20260830213904 0 157 2.0 3.0 0.00 0.00 0.00 1062.7
20260830213400 0 193 3.0 8.0 0.00 0.00 0.00 1062.6
20260830212855 0 166 1.0 2.0 0.00 0.00 0.00 1062.7
20260830212351 0 169 2.0 6.0 0.00 0.00 0.00 1062.8
20260830211850 0 237 3.0 3.0 0.00 0.00 0.00 1062.6
20260830211345 0 155 1.0 3.0 0.00 0.00 0.00 1062.5
20260830210841 0 137 1.0 5.0 0.00 0.00 0.00 1062.7
20260830210339 0 164 2.0 3.0 0.00 0.00 0.00 1062.5
20260830205837 0 206 1.0 2.0 0.00 0.00 0.00 1062.9
20260830205337 0 164 5.0 7.0 0.00 0.00 0.00 1062.5
20260830204832 0 173 1.0 2.0 0.00 0.00 0.00 1062.7
20260830204331 0 115 4.0 6.0 0.00 0.00 0.00 1062.9
20260830203827 0 242 4.0 9.0 0.00 0.00 0.00 1063.0
20260830203323 0 175 2.0 5.0 0.00 0.00 0.00 1063.3
20260830202822 0 167 2.0 5.0 0.00 0.00 0.00 1063.1
20260830202318 0 290 1.0 8.0 0.00 0.00 0.00 1063.1
20260830201813 0 205 5.0 9.0 0.00 0.00 0.00 1063.0
20260830201307 0 154 2.0 8.0 0.00 0.00 0.00 1063.1
20260830200803 0 115 2.0 7.0 0.00 0.00 0.00 1063.0
20260830200301 0 140 4.0 6.0 0.00 0.00 0.00 1063.3
20260830195757 0 157 1.0 3.0 0.00 0.00 0.00 1063.1
20260830195257 0 149 2.0 5.0 0.00 0.00 0.00 1063.3
20260830194754 0 226 3.0 8.0 0.00 0.00 0.00 1063.5
20260830194249 0 215 2.0 6.0 0.00 0.00 0.00 1063.5
20260830193749 0 291 3.0 3.0 0.00 0.00 0.00 1063.5
20260830193243 0 99 1.0 3.0 0.00 0.00 0.00 1063.5
20260830192739 0 241 5.0 7.0 0.00 0.00 0.00 1063.8
20260830192234 0 184 5.0 8.0 0.00 0.00 0.00 1063.7
20260830191730 0 153 0.0 2.0 0.00 0.00 0.00 1063.5
20260830191229 0 224 3.0 5.0 0.00 0.00 0.00 1063.7
20260830190725 0 180 2.0 5.0 0.00 0.00 0.00 1063.6
20260830190220 0 221 3.0 5.0 0.00 0.00 0.00 1063.6
20260830185718 0 188 1.0 7.0 0.00 0.00 0.00 1063.8
20260830185214 0 250 4.0 7.0 0.00 0.00 0.00 1063.9
20260830184713 0 121 3.0 7.0 0.00 0.00 0.00 1063.9
20260830184213 0 179 3.0 5.0 0.00 0.00 0.00 1063.6
20260830183708 0 138 3.0 7.0 0.00 0.00 0.00 1063.9
20260830183203 0 204 4.0 6.0 0.00 0.00 0.00 1063.9
20260830182658 0 292 3.0 9.0 0.00 0.00 0.00 1063.9
20260830182154 0 179 5.0 6.0 0.00 0.00 0.00 1063.7
20260830181650 0 232 5.0 9.0 0.00 0.00 0.00 1064.1
20260830181145 0 189 4.0 5.0 0.00 0.00 0.00 1064.0
20260830180644 0 147 2.0 7.0 0.00 0.00 0.00 1063.9
20260830180139 0 162 2.0 3.0 0.00 0.00 0.00 1064.0
20260830175637 0 191 3.0 5.0 0.00 0.00 0.00 1064.3
20260830175132 0 208 4.0 7.0 0.00 0.00 0.00 1064.1
20260830174628 0 211 2.0 6.0 0.00 0.00 0.00 1064.1
20260830174124 0 191 2.0 5.0 0.00 0.00 0.00 1064.3
20260830173618 0 265 3.0 7.0 0.00 0.00 0.00 1064.4
20260830173114 0 195 3.0 6.0 0.00 0.00 0.00 1064.4
20260830172611 0 157 3.0 5.0 0.00 0.00 0.00 1064.5
20260830172107 0 178 3.0 5.0 0.00 0.00 0.00 1064.8
20260830171602 0 186 5.0 8.0 0.00 0.00 0.00 1064.8
20260830171056 0 182 2.0 5.0 0.00 0.00 0.00 1064.9
20260830170555 0 215 3.0 6.0 0.00 0.00 0.00 1064.8
20260830170050 0 175 5.0 10.0 0.00 0.00 0.00 1064.8
20260830165545 0 163 1.0 3.0 0.00 0.00 0.00 1064.8
20260830165040 0 202 3.0 7.0 0.00 0.00 0.00 1064.9
20260830164537 0 133 1.0 3.0 0.00 0.00 0.00 1065.0
20260830164032 0 262 1.0 3.0 0.00 0.00 0.00 1065.1
20260830163529 0 134 1.0 3.0 0.00 0.00 0.00 1064.9
20260830163028 0 247 4.0 6.0 0.00 0.00 0.00 1065.0
20260830162524 0 154 1.0 3.0 0.00 0.00 0.00 1065.0
20260830162019 0 176 3.0 6.0 0.00 0.00 0.00 1065.1
20260830161514 0 143 6.0 9.0 0.00 0.00 0.00 1065.0
20260830161008 0 163 3.0 7.0 0.00 0.00 0.00 1065.0
20260830160504 0 189 4.0 7.0 0.00 0.00 0.00 1065.0
20260830155959 0 145 2.0 7.0 0.00 0.00 0.00 1065.0
20260830155455 0 188 3.0 6.0 0.00 0.00 0.00 1064.8
20260830154950 0 156 7.0 9.0 0.00 0.00 0.00 1064.9
20260830154446 0 159 3.0 9.0 0.00 0.00 0.00 1064.9
20260830153942 0 157 7.0 9.0 0.00 0.00 0.00 1064.8
20260830153438 0 184 2.0 6.0 0.00 0.00 0.00 1064.8
20260830152937 0 166 2.0 7.0 0.00 0.00 0.00 1065.1
20260830152432 0 233 3.0 3.0 0.00 0.00 0.00 1064.8
20260830151926 0 143 1.0 5.0 0.00 0.00 0.00 1065.0
20260830151425 0 184 2.0 3.0 0.00 0.00 0.00 1064.9
20260830150920 0 221 2.0 3.0 0.00 0.00 0.00 1064.9
20260830150420 0 163 5.0 8.0 0.00 0.00 0.00 1065.0
20260830145914 0 148 2.0 6.0 0.00 0.00 0.00 1065.0
20260830145409 0 180 4.0 7.0 0.00 0.00 0.00 1065.0
20260830144904 0 135 1.0 7.0 0.00 0.00 0.00 1064.6
20260830144401 0 156 5.0 7.0 0.00 0.00 0.00 1064.9
20260830143855 0 176 1.0 5.0 0.00 0.00 0.00 1064.9
20260830143355 0 154 2.0 2.0 0.00 0.00 0.00 1064.7
20260830142849 0 160 2.0 7.0 0.00 0.00 0.00 1064.5
20260830142344 0 162 3.0 6.0 0.00 0.00 0.00 1064.5
20260830141839 0 186 1.0 8.0 0.00 0.00 0.00 1064.6
20260830141334 0 153 1.0 2.0 0.00 0.00 0.00 1064.6
20260830140824 0 103 3.0 9.0 0.00 0.00 0.00 1064.7
20260830140319 0 128 1.0 7.0 0.00 0.00 0.00 1064.8
20260830135813 0 141 1.0 7.0 0.00 0.00 0.00 1064.9
20260830135309 0 173 2.0 6.0 0.00 0.00 0.00 1064.8
20260830134805 0 143 1.0 7.0 0.00 0.00 0.00 1064.8
20260830134304 0 181 4.0 8.0 0.00 0.00 0.00 1065.0
20260830133800 0 188 2.0 6.0 0.00 0.00 0.00 1064.9
20260830133255 0 156 3.0 5.0 0.00 0.00 0.00 1064.8
20260830132751 0 202 3.0 5.0 0.00 0.00 0.00 1064.6
20260830132247 0 175 4.0 5.0 0.00 0.00 0.00 1064.8
20260830131745 0 201 5.0 7.0 0.00 0.00 0.00 1064.7
20260830131240 0 166 3.0 14.0 0.00 0.00 0.00 1064.8
20260830130736 0 178 3.0 6.0 0.00 0.00 0.00 1064.7
20260830130235 0 159 4.0 9.0 0.00 0.00 0.00 1064.9
20260830125730 0 161 1.0 6.0 0.00 0.00 0.00 1064.6
20260830125225 0 198 3.0 7.0 0.00 0.00 0.00 1064.8
20260830124722 0 189 3.0 6.0 0.00 0.00 0.00 1064.8
20260830124218 0 155 3.0 6.0 0.00 0.00 0.00 1064.8
20260830123715 0 163 4.0 5.0 0.00 0.00 0.00 1064.8
20260830123211 0 171 2.0 5.0 0.00 0.00 0.00 1064.8
20260830122708 0 160 2.0 3.0 0.00 0.00 0.00 1064.8
20260830122203 0 154 3.0 3.0 0.00 0.00 0.00 1065.0
20260830121659 0 157 4.0 5.0 0.00 0.00 0.00 1065.0
20260830121158 0 174 2.0 6.0 0.00 0.00 0.00 1064.7
20260830120653 0 184 3.0 6.0 0.00 0.00 0.00 1065.0
20260830120149 0 175 3.0 5.0 0.00 0.00 0.00 1064.9
20260830115645 0 146 3.0 6.0 0.00 0.00 0.00 1064.8